Dewpoint
75 75 75 74 74 75 74 73 73 74 73 75 73 73 72 72 73 73 72 70 69 69 68 68 68 67 65 65 64 62 62 61 64 65 66 67 67 67 67 67 69 67 66
75 75 75 75 75 73 72 73 74 73 73 73 74 72 71 70 71 70 69 67 67 66 66 66 64 62 65 63 60 58 58 58 61 61 63 63 66 66 66 66 68 69 68
75 75 73 74 74 72 72 72 73 73 73 71 72 70 70 70 70 69 68 68 67 66 64 63 62 62 61 60 61 59 58 56 56 58 57 58 60 59 58 58 58 62 66
73 73 73 73 72 70 72 72 71 73 71 71 70 69 70 69 68 66 63 63 65 63 61 58 56 56 56 56 55 55 55 55 57 55 56 56 56 54 52 52 51 59 56
73 73 73 73 73 73 73 72 71 71 70 70 69 69 68 57 52 60 63 61 61 60 60 57 56 54 54 56 52 55 56 54 52 51 51 54 53 54 53 54 52 53 55
72 71 73 73 73 72 72 71 71 70 70 70 68 67 62 46 56 58 59 59 59 59 59 59 57 55 55 53 53 55 55 56 55 53 51 50 53 55 55 54 53 52 52
73 72 72 72 72 71 71 70 67 69 69 68 66 65 62 57 54 55 58 56 59 58 58 57 53 49 57 55 53 54 55 57 56 56 54 54 54 55 55 54 53 53 53
72 71 72 71 70 70 70 69 69 68 67 66 64 63 64 55 54 55 57 57 58 57 57 56 56 58 55 53 52 52 52 53 53 50 53 54 54 56 54 52 53 52 51
71 71 71 71 69 69 67 68 67 66 65 64 63 63 63 60 56 56 57 56 54 59 59 59 58 58 52 48 52 52 52 51 50 54 55 54 53 54 53 50 48 48 47
70 70 71 70 69 67 67 66 66 65 64 61 62 63 54 62 55 55 56 53 51 51 55 57 57 52 51 49 52 51 49 49 52 49 48 49 51 51 55 52 50 48 49
70 70 69 68 68 67 66 65 65 64 63 64 62 62 62 61 55 53 52 56 53 50 47 47 50 50 49 49 50 50 50 51 49 48 47 47 49 48 49 51 56 55 51
70 69 68 68 65 63 64 64 64 65 63 63 62 61 58 61 57 52 51 51 54 52 51 50 52 50 49 50 50 50 51 52 48 46 46 45 47 48 48 50 51 52 51
69 68 68 67 64 64 64 64 61 62 60 59 58 57 58 57 58 53 52 51 51 50 51 50 51 49 48 48 50 52 52 50 48 47 46 47 49 51 53 53 54 54 54
67 66 64 63 62 62 61 60 58 58 58 55 54 53 49 53 49 55 53 53 52 51 51 47 47 49 50 49 49 51 49 49 50 46 45 45 47 49 47 48 46 48 48
66 64 62 61 58 60 59 53 55 53 48 50 49 49 48 50 49 47 47 49 49 47 46 45 45 45 46 47 49 49 48 47 48 48 46 45 45 45 46 48 47 46 46
63 61 60 57 55 57 57 55 47 47 46 44 44 46 51 47 44 43 41 42 42 44 44 44 44 45 46 47 47 46 46 49 48 48 47 46 45 44 44 46 46 48 46
61 59 59 53 53 54 54 51 49 49 46 44 43 43 43 43 42 41 40 41 41 43 44 45 46 47 47 48 48 48 46 48 49 47 45 44 44 44 48 47 48 48 46
62 57 56 54 53 53 55 55 53 48 47 48 45 44 42 41 41 40 40 43 44 46 46 47 48 48 49 50 48 45 44 43 43 43 44 44 45 44 45 46 47 47 48
61 53 52 50 55 52 54 53 51 52 51 53 52 46 45 41 41 40 40 43 44 45 46 46 45 45 49 48 46 44 43 44 46 48 46 45 47 48 47 48 48 47 48
53 54 53 53 48 52 50 48 47 50 50 50 50 50 50 48 47 49 49 47 46 46 47 46 47 50 48 46 45 44 45 46 46 46 47 47 46 46 45 45 46 47 46
50 51 51 50 47 46 46 44 46 42 44 48 42 50 42 47 45 46 47 50 47 46 47 47 50 48 47 44 46 47 46 46 46 46 43 42 41 40 41 39 40 45 46
49 47 47 49 47 47 47 44 43 46 46 43 41 48 42 44 44 46 49 46 46 47 45 52 48 46 45 47 48 47 46 45 44 42 41 40 37 35 38 38 39 45 46
44 43 47 48 46 45 43 42 41 43 40 43 44 43 45 46 46 47 48 47 47 45 45 47 48 47 45 47 48 46 45 44 43 41 41 40 38 37 38 39 43 44 46
44 42 39 42 46 43 42 43 44 41 44 44 44 45 46 50 47 49 48 47 46 44 45 47 49 46 46 47 46 45 43 39 39 39 41 39 39 39 40 41 46 45 45
43 43 42 44 42 42 44 42 47 47 46 45 45 46 46 47 48 49 47 47 45 45 47 48 48 47 47 46 44 42 38 33 36 36 39 41 42 43 46 46 46 45 44
45 43 43 42 43 45 46 47 48 48 47 46 49 52 49 49 49 49 48 47 46 46 47 46 49 50 47 45 42 37 32 33 35 32 35 40 43 45 45 44 44 44 43
Lifted_Index
-7 -7 -7 -6 -6 -6 -5 -5 -4 -4 -4 -4 -4 -3 -3 -2 -2 -2 -1 -1 -0 -0 -0 0 0 1 1 2 1 1 0 0 -0 -1 -0 -0 0 1 1 1 0 0 0
-8 -7 -7 -7 -6 -6 -5 -5 -4 -4 -4 -3 -3 -3 -2 -2 -2 -1 -0 0 1 1 1 1 2 2 2 2 2 2 1 1 0 -0 -0 -0 0 1 1 1 0 0 0
-8 -8 -7 -7 -6 -6 -5 -5 -4 -4 -3 -3 -2 -2 -1 -1 -0 0 1 1 2 2 2 3 4 4 5 4 4 5 4 3 2 1 1 1 1 1 1 1 1 0 0
-8 -7 -7 -6 -6 -5 -5 -4 -4 -3 -3 -2 -1 -0 -0 0 1 2 2 3 3 4 4 6 7 8 8 7 7 7 7 6 6 5 4 4 4 4 3 2 2 2 2
-7 -7 -6 -6 -5 -5 -4 -4 -3 -3 -2 -1 -0 1 1 3 4 5 5 5 5 5 6 7 9 9 9 9 9 9 9 8 8 8 7 7 7 6 6 5 4 4 4
-7 -6 -6 -5 -5 -4 -4 -3 -3 -2 -1 -0 1 2 3 5 7 8 7 6 6 7 7 8 8 9 9 9 10 10 9 9 9 9 9 8 8 7 7 7 7 7 6
-7 -6 -6 -5 -4 -4 -3 -3 -2 -1 0 2 3 4 5 7 10 10 9 7 7 7 7 8 8 8 8 9 10 10 10 9 9 9 9 8 8 8 8 9 9 9 8
-6 -6 -5 -5 -4 -3 -3 -2 -1 0 2 3 5 5 5 7 10 10 9 8 7 7 7 7 7 7 8 9 10 11 10 10 10 10 9 9 9 9 10 10 10 10 9
-6 -6 -5 -4 -3 -3 -2 -1 0 2 3 5 6 6 6 6 8 9 9 8 7 7 7 7 7 7 7 9 10 11 11 10 10 10 10 10 10 10 10 10 9 9 9
-6 -5 -5 -4 -3 -2 -1 0 2 3 4 5 6 6 6 6 7 8 9 9 8 8 7 7 7 7 8 9 10 11 10 10 10 10 10 10 10 10 9 9 8 8 8
-5 -5 -4 -3 -3 -2 -0 1 3 3 4 5 5 6 5 6 6 8 9 9 9 9 9 9 9 9 9 10 10 10 10 9 9 10 10 10 9 9 9 8 7 7 7
-5 -4 -3 -3 -2 -0 1 2 3 4 4 4 5 5 5 5 6 7 8 9 10 9 9 9 9 9 9 10 10 9 9 9 9 9 9 9 9 9 9 8 8 7 7
-4 -3 -3 -2 -1 1 2 3 3 4 4 4 5 5 6 6 6 7 8 9 10 9 9 8 9 9 9 9 8 8 8 9 9 9 9 9 9 9 8 8 8 8 8
-3 -3 -2 -1 -0 1 3 4 4 4 5 6 6 7 8 8 8 8 9 10 10 9 9 9 8 8 8 8 7 8 8 8 8 8 8 8 8 8 8 8 8 8 8
-2 -2 -1 -1 0 2 4 5 5 6 7 8 9 9 10 10 10 10 10 10 9 9 9 8 8 7 7 7 7 7 7 7 7 7 8 8 8 8 8 8 8 8 8
-1 -1 -1 -0 2 3 4 5 6 7 9 9 10 10 10 10 10 10 10 9 8 8 8 7 7 7 7 6 6 6 7 7 7 7 8 8 8 9 9 9 8 8 8
-0 -0 -0 1 3 4 5 5 6 7 8 9 9 9 9 9 9 9 8 7 7 7 7 7 6 6 6 6 6 7 7 7 8 8 8 9 9 9 9 9 9 9 9
0 0 1 3 5 5 5 5 6 7 7 8 8 8 8 8 8 7 7 7 7 7 7 6 6 6 6 6 7 7 8 8 9 9 9 9 10 10 10 10 10 10 9
1 2 4 5 5 5 5 6 6 7 7 7 7 7 7 7 7 6 6 6 7 7 6 6 6 6 7 7 8 8 9 9 9 9 10 11 11 12 12 11 11 11 10
3 5 6 6 6 6 6 6 7 7 7 7 7 6 6 6 6 6 6 6 6 6 6 6 7 7 7 8 8 9 9 9 9 10 11 12 13 13 13 13 13 12 11
6 7 7 7 7 7 7 7 8 7 7 7 7 6 6 6 6 5 5 5 5 6 6 7 7 7 8 8 9 9 8 9 10 11 13 14 14 14 15 14 14 13 12
7 7 7 7 8 8 8 8 8 7 7 7 6 5 5 5 5 5 4 4 5 6 7 7 7 7 8 8 8 8 8 10 11 12 14 15 15 15 15 14 13 12 12
8 8 8 8 8 8 8 8 7 7 7 6 5 5 4 4 4 4 4 4 5 6 7 7 7 7 8 8 8 8 9 11 12 13 15 15 15 14 14 13 12 11 11
7 8 8 8 9 8 8 7 7 7 6 5 5 4 3 3 3 3 3 4 6 7 7 7 7 7 7 8 8 9 10 12 13 14 15 15 14 14 13 12 11 11 10
7 7 8 8 8 8 7 7 6 6 5 5 4 3 3 3 3 3 4 5 6 7 7 7 7 7 8 7 8 9 11 12 13 14 14 14 13 13 12 11 11 11 11
6 7 8 8 8 8 7 6 6 5 5 4 3 2 2 2 3 3 4 5 6 7 7 7 7 8 8 7 8 9 11 12 12 13 13 13 13 12 12 11 11 10 10